Location: Unspecified
(0.0000°N, 0.0000°E)
Time: 17:21:17
(UTC+00:00)

Envisat - Pass Details

Date: 21 March 2019
Orbit: 764 x 766 km, 98.2° (Epoch: 23 May)

Event Time Altitude Azimuth Distance (km) Brightness Sun altitude
Rises 19:01:54 0° 168° (SSE) 3,228 6.1 -13.7°
Reaches altitude 10° 19:04:12 10° 168° (SSE) 2,300 5.3 -14.3°
Maximum altitude 19:09:17 90° 76° (ENE) 768 3.0 -15.5°
Drops below altitude 10° 19:14:20 10° 348° (NNW) 2,292 5.6 -16.8°
Sets 19:16:38 0° 348° (NNW) 3,215 6.4 -17.4°
